Date,TemperatureHighF,TemperatureAvgF,TemperatureLowF,DewpointHighF,DewpointAvgF,DewpointLowF,HumidityHigh,HumidityAvg,HumidityLow,PressureMaxIn,PressureMinIn,WindSpeedMaxMPH,WindSpeedAvgMPH,GustSpeedMaxMPH,PrecipitationSumIn
2013-4-1,45.3,36.7,27.3,42.0,28.6,19.7,87,71,48,29.98,29.58,20,9,33,0.05
2013-4-2,40.0,31.3,26.8,28.7,20.4,17.2,76,61,44,30.13,29.97,18,8,29,0.01
2013-4-3,42.7,33.1,27.1,25.7,19.9,16.2,69,56,37,30.40,30.13,16,7,28,0.00
2013-4-4,55.5,38.3,22.1,27.6,21.1,16.6,80,51,19,30.37,29.92,14,5,21,0.00
2013-4-5,52.1,38.8,29.1,35.5,25.1,16.5,82,55,39,30.18,29.89,15,6,20,0.00
2013-4-6,51.6,35.9,19.1,30.4,23.3,15.6,87,59,32,30.33,30.02,10,3,19,0.00
2013-4-7,71.1,54.9,38.2,49.5,35.8,25.2,70,46,31,30.06,29.69,31,10,45,0.00
2013-4-8,61.2,46.3,31.3,50.0,37.4,27.0,88,70,44,30.13,29.74,12,3,20,0.18
2013-4-9,63.4,50.5,44.6,50.6,44.9,40.5,90,79,52,30.13,29.78,17,5,30,0.62
2013-4-10,46.4,43.3,39.7,44.5,41.4,37.6,91,91,88,30.10,29.88,13,5,21,0.65
2013-4-11,39.9,35.5,33.2,37.6,32.5,29.5,90,87,73,30.15,29.94,14,7,24,0.37
2013-4-12,50.1,40.0,34.3,48.5,37.3,30.8,92,88,79,29.94,29.51,19,8,29,0.72
2013-4-13,46.2,42.0,37.8,39.1,36.6,34.0,86,79,66,29.95,29.77,20,10,31,0.02
2013-4-14,51.2,41.8,34.5,40.6,32.9,29.3,86,68,51,30.20,29.95,13,4,20,0.01
2013-4-15,75.1,55.3,37.8,53.5,42.0,28.8,71,59,38,30.16,29.99,13,4,19,0.00
2013-4-16,65.8,57.3,41.8,58.3,49.7,36.9,90,74,61,30.26,29.95,22,7,35,0.08
2013-4-17,61.6,46.6,30.9,46.4,36.3,28.3,91,66,40,30.38,30.23,12,3,18,0.00
2013-4-18,83.3,63.2,43.5,63.7,51.1,34.6,85,63,46,30.23,29.66,22,9,31,0.07
2013-4-19,74.7,59.2,43.3,61.7,48.7,30.8,80,65,56,29.76,29.36,27,12,44,0.01
2013-4-20,43.9,39.0,30.9,34.6,28.9,22.5,85,64,50,30.43,29.75,21,11,35,0.04
2013-4-21,54.0,36.7,22.5,38.3,25.0,17.6,89,61,41,30.70,30.43,12,3,15,0.00
2013-4-22,63.4,47.5,30.3,36.9,29.4,16.8,77,48,25,30.60,30.32,11,4,19,0.00
2013-4-23,69.3,53.5,37.1,47.4,36.7,28.3,71,51,27,30.32,29.92,7,2,14,0.00
2013-4-24,65.7,54.1,38.5,56.9,44.8,34.9,89,69,45,30.03,29.61,17,7,26,0.38
2013-4-25,58.6,45.0,33.1,41.2,35.9,29.6,89,70,36,30.33,30.03,17,6,26,0.02
2013-4-26,61.4,46.7,31.7,43.4,34.7,27.4,91,64,29,30.49,30.32,10,3,15,0.02
2013-4-27,74.6,54.3,34.6,51.0,39.2,30.0,84,56,31,30.44,30.22,9,2,12,0.00
2013-4-28,76.4,60.5,47.0,51.5,43.8,37.1,79,54,24,30.22,30.00,16,4,26,0.04
2013-4-29,65.6,58.8,52.1,56.5,51.2,46.6,85,73,63,30.04,29.96,12,3,20,0.02
2013-4-30,77.6,65.1,58.3,64.2,55.0,51.1,79,67,54,30.20,30.03,10,4,16,0.00